Home   Weather   Amiens   Past weeks

Flag for France Past Weather in Amiens, Picardy, France — Yesterday and Last 2 Weeks

Now
52 °F

Clear.


Feels Like: 51 °F
Forecast: 51 / 74 °F
Wind: 5 mph from Northwest

Location: Beauvais Airport

Current Time: Jul 21, 2017 at 12:48:32 am

Latest Report: Jul 21, 2017 at 12:00 am


Visibility: 10 mi

Pressure: 29.95 "Hg

Humidity: 82%

Dew Point: 46 °F

Location of AmiensLocation

Past Weather in Amiens — Graph

°F

Amiens Temperature Yesterday

Maximum temperature yesterday: 72 °F (at 12:00 am)
Minimum temperature yesterday: 55 °F (at 11:30 pm)
Average temperature yesterday: 66 °F

High & Low Weather Summary for the Past Weeks

 TemperatureHumidityPressure
High90 °F (Jul 18, 3:30 pm)100% (Jul 7, 2:30 am)30.27 "Hg (Jul 7, 2:30 am)
Low48 °F (Jul 15, 4:30 am)33% (Jul 7, 3:00 pm)29.74 "Hg (Jul 19, 4:30 am)
Average68 °F70%30.01 "Hg
* Reported Jul 5 11:00 pm — Jul 20 11:30 pm, Amiens. Weather by CustomWeather, © 2017

Note: Actual official high and low records may vary slightly from our data, if they occured in-between our weather recording intervals... More about our weather records

Advertising

Amiens Weather History for the Previous 24 Hours

Scroll right to see more
 ConditionsComfort  
Time TempWeatherWind HumidityBarometerVisibility
11:30 pm
Thu, Jul 20
55 °FClear.5 mph72%29.95 "Hg10 mi
11:00 pm57 °FClear.6 mph67%29.95 "Hg10 mi
10:30 pm59 °FClear.6 mph68%29.95 "Hg10 mi
10:00 pm61 °FClear.5 mph63%29.95 "Hg10 mi
9:30 pm63 °FSunny.6 mph64%29.95 "Hg10 mi
9:00 pm64 °FScattered clouds.7 mph60%29.95 "HgN/A
8:30 pm66 °FPartly sunny.7 mph56%29.95 "HgN/A
8:00 pm66 °FPartly sunny.8 mph56%29.95 "HgN/A
7:30 pm66 °FPartly sunny.9 mph52%29.95 "HgN/A
7:00 pm66 °FPartly sunny.10 mph56%29.95 "HgN/A
6:30 pm68 °FBroken clouds.12 mph53%29.92 "HgN/A
6:00 pm68 °FOvercast.9 mph53%29.92 "HgN/A
5:30 pm66 °FMore clouds than sun.12 mph56%29.92 "HgN/A
5:00 pm66 °FBroken clouds.13 mph60%29.92 "HgN/A
4:30 pm64 °FBroken clouds.14 mph64%29.92 "HgN/A
4:00 pm64 °FBroken clouds.18 mph64%29.92 "HgN/A
3:30 pm66 °FMostly cloudy.17 mph68%29.92 "HgN/A
2:30 pm61 °FDrizzle. Broken clouds.18 mph83%29.89 "HgN/A
2:00 pm63 °FBroken clouds.17 mph88%29.89 "Hg6 mi
1:30 pm64 °FPartly sunny.17 mph83%29.86 "HgN/A
1:00 pm66 °FPartly sunny.17 mph83%29.86 "HgN/A
12:30 pm66 °FMostly cloudy.15 mph83%29.83 "HgN/A
12:00 pm66 °FPartly sunny.9 mph88%29.83 "HgN/A
11:30 am64 °FLight rain. Fog.14 mph94%29.83 "Hg2 mi
11:00 am70 °FCloudy.15 mph64%29.83 "HgN/A
10:30 am70 °FPartly sunny.18 mph64%29.80 "HgN/A
10:00 am72 °FPartly sunny.15 mph65%29.80 "HgN/A
9:30 am70 °FPartly sunny.16 mph69%29.80 "HgN/A
9:00 am68 °FPartly sunny.13 mph73%29.80 "HgN/A
8:30 am66 °FMostly cloudy.14 mph78%29.80 "HgN/A
8:00 am66 °FPartly sunny.12 mph78%29.80 "HgN/A
7:30 am66 °FPartly sunny.12 mph78%29.80 "HgN/A
7:00 am64 °FMostly cloudy.10 mph83%29.80 "HgN/A
6:30 am64 °FBroken clouds.7 mph83%29.80 "HgN/A
6:00 am64 °FPassing clouds.10 mph83%29.80 "HgN/A
5:30 am66 °FClear.13 mph78%29.80 "Hg10 mi
5:00 am66 °FClear.14 mph83%29.80 "Hg10 mi
4:30 am68 °FPassing clouds.9 mph78%29.80 "HgN/A
4:00 am68 °FPassing clouds.7 mph78%29.80 "HgN/A
3:30 am68 °FPassing clouds.6 mph78%29.80 "HgN/A
3:00 am68 °FPassing clouds.7 mph83%29.80 "HgN/A
2:30 am70 °FMostly cloudy.7 mph73%29.80 "HgN/A
2:00 am70 °FMostly cloudy.7 mph73%29.83 "HgN/A
1:30 am70 °FMostly cloudy.9 mph73%29.80 "HgN/A
1:00 am70 °FClear.10 mph73%29.80 "Hg10 mi
12:30 am70 °FPassing clouds.9 mph73%29.80 "HgN/A
12:00 am72 °FClear.9 mph69%29.80 "Hg10 mi
Weather by CustomWeather, © 2017

See weather overviewHow to use our weather pages